TimeEDT,TemperatureF,Dew PointF,Humidity,Sea Level PressureIn,VisibilityMPH,Wind Direction,Wind SpeedMPH,Gust SpeedMPH,PrecipitationIn,Events,Conditions,WindDirDegrees,DateUTC
12:15 AM,51.8,48.2,88,29.60,10.0,Calm,Calm,-,N/A,,Overcast,0,2013-03-25 04:15:00
12:35 AM,51.8,48.2,88,29.61,10.0,Calm,Calm,-,N/A,,Overcast,0,2013-03-25 04:35:00
12:55 AM,51.8,50.0,94,29.62,10.0,Calm,Calm,-,N/A,,Overcast,0,2013-03-25 04:55:00
1:15 AM,51.8,50.0,94,29.63,10.0,WNW,4.6,-,N/A,,Overcast,300,2013-03-25 05:15:00
1:35 AM,51.8,50.0,94,29.65,10.0,WSW,5.8,-,N/A,,Overcast,250,2013-03-25 05:35:00
1:55 AM,53.6,50.0,88,29.65,10.0,West,4.6,-,N/A,,Overcast,270,2013-03-25 05:55:00
2:15 AM,53.6,50.0,88,29.65,10.0,West,6.9,-,N/A,,Overcast,280,2013-03-25 06:15:00
2:35 AM,53.6,50.0,88,29.65,10.0,WNW,6.9,-,N/A,,Overcast,290,2013-03-25 06:35:00
2:55 AM,53.6,48.2,82,29.66,10.0,WNW,13.8,19.6,N/A,,Mostly Cloudy,290,2013-03-25 06:55:00
3:15 AM,53.6,46.4,77,29.66,10.0,West,15.0,19.6,N/A,,Mostly Cloudy,280,2013-03-25 07:15:00
3:35 AM,51.8,44.6,76,29.66,10.0,West,10.4,16.1,N/A,,Scattered Clouds,280,2013-03-25 07:35:00
3:55 AM,51.8,44.6,76,29.66,10.0,West,11.5,-,N/A,,Clear,270,2013-03-25 07:55:00
4:35 AM,51.8,44.6,76,29.66,10.0,West,9.2,-,N/A,,Clear,270,2013-03-25 08:35:00
4:55 AM,51.8,42.8,71,29.67,10.0,West,15.0,24.2,N/A,,Scattered Clouds,270,2013-03-25 08:55:00
5:15 AM,51.8,41.0,67,29.68,10.0,West,12.7,25.3,N/A,,Scattered Clouds,270,2013-03-25 09:15:00
5:35 AM,50.0,41.0,71,29.69,10.0,WNW,18.4,25.3,N/A,,Overcast,300,2013-03-25 09:35:00
5:55 AM,50.0,37.4,62,29.70,10.0,WNW,18.4,25.3,N/A,,Mostly Cloudy,290,2013-03-25 09:55:00
6:15 AM,48.2,33.8,58,29.72,10.0,WNW,23.0,34.5,N/A,,Scattered Clouds,290,2013-03-25 10:15:00
6:35 AM,46.4,32.0,57,29.74,10.0,WNW,16.1,26.5,N/A,,Clear,290,2013-03-25 10:35:00
6:55 AM,46.4,32.0,57,29.75,10.0,West,15.0,21.9,N/A,,Clear,280,2013-03-25 10:55:00
7:15 AM,44.6,32.0,61,29.75,10.0,West,23.0,35.7,N/A,,Clear,280,2013-03-25 11:15:00
7:55 AM,44.6,32.0,61,29.77,10.0,West,18.4,28.8,N/A,,Clear,280,2013-03-25 11:55:00
8:15 AM,46.4,32.0,57,29.77,10.0,West,18.4,29.9,N/A,,Clear,260,2013-03-25 12:15:00
8:35 AM,46.4,32.0,57,29.78,10.0,West,20.7,25.3,N/A,,Clear,260,2013-03-25 12:35:00
8:55 AM,46.4,32.0,57,29.78,10.0,West,21.9,26.5,N/A,,Clear,270,2013-03-25 12:55:00
9:35 AM,48.2,30.2,50,29.79,10.0,West,26.5,38.0,N/A,,Clear,270,2013-03-25 13:35:00
9:55 AM,48.2,28.4,46,29.79,10.0,West,23.0,36.8,N/A,,Clear,280,2013-03-25 13:55:00
10:15 AM,50.0,30.2,47,29.79,10.0,West,21.9,33.4,N/A,,Clear,280,2013-03-25 14:15:00
10:35 AM,50.0,28.4,43,29.79,10.0,West,25.3,35.7,N/A,,Clear,280,2013-03-25 14:35:00
10:55 AM,50.0,28.4,43,29.80,10.0,West,23.0,34.5,N/A,,Clear,280,2013-03-25 14:55:00
11:15 AM,51.8,28.4,41,29.80,10.0,West,20.7,33.4,N/A,,Clear,260,2013-03-25 15:15:00
11:35 AM,51.8,30.2,44,29.80,10.0,West,23.0,31.1,N/A,,Clear,260,2013-03-25 15:35:00
11:55 AM,53.6,30.2,41,29.80,10.0,West,18.4,32.2,N/A,,Scattered Clouds,280,2013-03-25 15:55:00
12:15 PM,53.6,28.4,38,29.80,10.0,West,23.0,31.1,N/A,,Clear,260,2013-03-25 16:15:00
12:35 PM,53.6,30.2,41,29.80,10.0,WNW,20.7,28.8,N/A,,Clear,290,2013-03-25 16:35:00
12:55 PM,53.6,30.2,41,29.80,10.0,West,21.9,31.1,N/A,,Clear,260,2013-03-25 16:55:00
1:15 PM,55.4,28.4,36,29.80,10.0,West,21.9,32.2,N/A,,Clear,280,2013-03-25 17:15:00
1:55 PM,57.2,28.4,33,29.79,10.0,West,24.2,32.2,N/A,,Scattered Clouds,270,2013-03-25 17:55:00
2:15 PM,55.4,26.6,33,29.78,10.0,WNW,25.3,38.0,N/A,,Scattered Clouds,290,2013-03-25 18:15:00
2:35 PM,57.2,26.6,31,29.78,10.0,WNW,26.5,39.1,N/A,,Clear,290,2013-03-25 18:35:00
2:55 PM,57.2,24.8,29,29.78,10.0,West,21.9,36.8,N/A,,Clear,280,2013-03-25 18:55:00
3:15 PM,59.0,24.8,27,29.78,10.0,West,24.2,34.5,N/A,,Clear,280,2013-03-25 19:15:00
3:35 PM,59.0,26.6,29,29.78,10.0,West,29.9,35.7,N/A,,Clear,270,2013-03-25 19:35:00
3:55 PM,59.0,26.6,29,29.78,10.0,West,24.2,29.9,N/A,,Clear,280,2013-03-25 19:55:00
4:15 PM,59.0,26.6,29,29.78,10.0,WNW,24.2,32.2,N/A,,Clear,300,2013-03-25 20:15:00
4:35 PM,59.0,26.6,29,29.79,10.0,West,21.9,28.8,N/A,,Clear,280,2013-03-25 20:35:00
4:55 PM,57.2,23.0,27,29.79,10.0,WNW,21.9,33.4,N/A,,Clear,300,2013-03-25 20:55:00
5:35 PM,59.0,23.0,25,29.79,10.0,WNW,25.3,29.9,N/A,,Clear,290,2013-03-25 21:35:00
5:55 PM,57.2,21.2,25,29.80,10.0,WNW,19.6,29.9,N/A,,Clear,290,2013-03-25 21:55:00
6:15 PM,55.4,19.4,25,29.81,10.0,West,21.9,31.1,N/A,,Clear,280,2013-03-25 22:15:00
6:35 PM,55.4,19.4,25,29.82,10.0,West,19.6,28.8,N/A,,Clear,280,2013-03-25 22:35:00
6:55 PM,55.4,19.4,25,29.83,10.0,WNW,19.6,27.6,N/A,,Clear,290,2013-03-25 22:55:00
7:15 PM,53.6,21.2,28,29.84,10.0,WNW,18.4,28.8,N/A,,Clear,290,2013-03-25 23:15:00
7:35 PM,53.6,21.2,28,29.86,10.0,WNW,15.0,24.2,N/A,,Clear,300,2013-03-25 23:35:00
7:55 PM,51.8,21.2,30,29.87,10.0,WNW,16.1,20.7,N/A,,Clear,290,2013-03-25 23:55:00
8:15 PM,51.8,21.2,30,29.88,10.0,WNW,12.7,19.6,N/A,,Clear,300,2013-03-26 00:15:00
8:35 PM,51.8,21.2,30,29.89,10.0,WNW,13.8,20.7,N/A,,Clear,290,2013-03-26 00:35:00
8:55 PM,51.8,21.2,30,29.91,10.0,WNW,15.0,21.9,N/A,,Clear,290,2013-03-26 00:55:00
9:15 PM,50.0,21.2,32,29.92,10.0,WNW,9.2,19.6,N/A,,Clear,290,2013-03-26 01:15:00
9:55 PM,48.2,21.2,34,29.95,10.0,NW,13.8,25.3,N/A,,Clear,310,2013-03-26 01:55:00
10:15 PM,46.4,21.2,37,29.96,10.0,NW,19.6,26.5,N/A,,Clear,310,2013-03-26 02:15:00
10:35 PM,46.4,21.2,37,29.97,10.0,NW,19.6,26.5,N/A,,Clear,310,2013-03-26 02:35:00
10:55 PM,46.4,21.2,37,29.98,10.0,WNW,16.1,23.0,N/A,,Clear,300,2013-03-26 02:55:00
11:15 PM,44.6,21.2,39,29.99,10.0,WNW,21.9,29.9,N/A,,Clear,300,2013-03-26 03:15:00
11:35 PM,44.6,23.0,43,30.00,10.0,WNW,15.0,21.9,N/A,,Clear,300,2013-03-26 03:35:00